{"data":{"norad_id":57467,"epoch":"2026-05-25T01:14:43.785024Z","epoch_age_seconds":81215,"freshness":"FRESH","line1":"1 57467U 23107L   26145.05189566  .00000618  00000+0  31957-4 0  9993","line2":"2 57467  43.0037 265.0282 0000920 272.9959  87.0787 15.27582411156822","mean_motion":15.27582411,"eccentricity":9.2e-5,"inclination_deg":43.0037,"raan_deg":265.0282,"arg_perigee_deg":272.9959,"mean_anomaly_deg":87.0787,"bstar":3.1957e-5,"rev_number":15682,"period_min":94.266599931413,"perigee_km":482.41064819114,"apogee_km":483.67310510445,"semimajor_km":6861.1788766478,"source":"CELESTRAK","updated_at":"2026-05-25T13:38:18.324753Z"}}